Weather History for Biggin Hill, United Kingdom

Change the Weather History Date:

Tuesday, November 27, 2012

  Actual Average Record
Temperature  
Mean Temperature 42 °F -  
Max Temperature 48 °F 45 °F 55 °F (2011)
Min Temperature 37 °F 40 °F 28 °F (2010)
Degree Days  
Heating Degree Days 22    
Moisture  
Dew Point 41 °F    
Average Humidity 92    
Maximum Humidity 100    
Minimum Humidity 81    
Precipitation  
Precipitation 0.00 in - - ()
Sea Level Pressure  
Sea Level Pressure 29.64 in    
Wind  
Wind Speed 10 mph ()    
Max Wind Speed 20 mph    
Max Gust Speed 34 mph    
Visibility 4.9 miles    
Events Rain    
Averages and records for this station are not official NWS values.
T = Trace of Precipitation, MM = Missing Value Source: Averaged Metar Reports

Daily Weather History Graph

Daily Weather History Graph

Search for Another Location

Airport:

Trip Planner

Search our weather history database for the weather conditions in past years. The results will help you decide how hot, cold, wet, or windy it might be!

Date:

Astronomy

Nov. 27, 2012 Rise Set
Actual Time 7:37 AM GMT 3:57 PM GMT
Civil Twilight 6:58 AM GMT 4:36 PM GMT
Nautical Twilight 6:16 AM GMT 5:17 PM GMT
Astronomical Twilight 5:37 AM GMT 5:57 PM GMT
Moon 3:21 PM GMT (11/27) 6:24 AM GMT (11/27)
Length of Visible Light 9h 37m
Length of Day
8h 20m
Waxing Gibbous, 99% of the Moon is Illuminated
Nov 27
Waxing Gibbous
Nov 28
Full
Dec 6
Last Quarter
Dec 13
New
Dec 20
First Quarter

Hourly Weather History & Observations

Time (GMT) Temp. Windchill Dew Point Humidity Pressure Visibility Wind Dir Wind Speed Gust Speed Precip Events Conditions
7:20 AM 44.6 °F 41.4 °F 42.8 °F 93% 29.53 in 1.2 mi WNW 5.8 mph - N/A Rain Rain
7:50 AM 42.8 °F 38.6 °F 42.8 °F 100% 29.53 in 1.1 mi WNW 6.9 mph - N/A Rain Light Rain
8:20 AM 42.8 °F 38.6 °F 42.8 °F 100% 29.56 in 1.6 mi NW 6.9 mph - N/A Rain Light Rain
8:50 AM 42.8 °F 39.3 °F 42.8 °F 100% 29.56 in 1.6 mi NW 5.8 mph - N/A   Mostly Cloudy
9:20 AM 44.6 °F 40.2 °F 44.6 °F 100% 29.56 in 2.5 mi NNW 8.1 mph - N/A   Mostly Cloudy
9:50 AM 48.2 °F - 44.6 °F 87% 29.56 in 5.0 mi North 8.1 mph - N/A   Mostly Cloudy
10:20 AM 46.4 °F 40.7 °F 44.6 °F 93% 29.59 in 2.2 mi North 12.7 mph - N/A   Mostly Cloudy
10:50 AM 44.6 °F 39.2 °F 44.6 °F 100% 29.59 in 5.0 mi North 10.4 mph - N/A   Mostly Cloudy
11:20 AM 46.4 °F 40.1 °F 44.6 °F 93% 29.59 in 6.2 mi North 15.0 mph - N/A   Mostly Cloudy
11:50 AM 44.6 °F 38.4 °F 42.8 °F 93% 29.59 in 6.2 mi North 12.7 mph - N/A   Mostly Cloudy
12:20 PM 44.6 °F 38.8 °F 42.8 °F 93% 29.62 in 6.2 mi North 11.5 mph - N/A   Mostly Cloudy
12:50 PM 44.6 °F 39.2 °F 41.0 °F 87% 29.62 in 6.2 mi North 10.4 mph - N/A   Mostly Cloudy
1:20 PM 46.4 °F 41.5 °F 44.6 °F 93% 29.62 in 6.2 mi North 10.4 mph - N/A   Mostly Cloudy
1:50 PM 44.6 °F 38.8 °F 42.8 °F 93% 29.62 in 6.2 mi North 11.5 mph - N/A Rain Light Rain
2:20 PM 46.4 °F 41.1 °F 44.6 °F 93% 29.62 in 6.2 mi North 11.5 mph - N/A Rain Light Rain
2:50 PM 44.6 °F 38.4 °F 42.8 °F 93% 29.65 in 6.2 mi North 12.7 mph - N/A Rain Light Rain
3:20 PM 44.6 °F 37.8 °F 42.8 °F 93% 29.65 in 5.0 mi North 15.0 mph - N/A   Mostly Cloudy
3:50 PM 42.8 °F 34.8 °F 41.0 °F 93% 29.68 in 3.7 mi North 17.3 mph - N/A   Light Drizzle
4:20 PM 42.8 °F 34.8 °F 41.0 °F 93% 29.68 in 3.7 mi North 17.3 mph - N/A   Light Drizzle
4:50 PM 42.8 °F 34.8 °F 41.0 °F 93% 29.68 in 6.2 mi North 17.3 mph - N/A   Light Drizzle
5:20 PM 42.8 °F 34.8 °F 41.0 °F 93% 29.71 in 6.2 mi North 17.3 mph - N/A   Light Drizzle
5:50 PM 42.8 °F 34.3 °F 39.2 °F 87% 29.71 in 6.2 mi North 19.6 mph 34.5 mph N/A   Mostly Cloudy
6:20 PM 39.2 °F 29.8 °F 35.6 °F 87% 29.74 in 6.2 mi North 18.4 mph - N/A   Mostly Cloudy
6:50 PM 41.0 °F 32.8 °F 37.4 °F 87% 29.74 in 6.2 mi North 16.1 mph - N/A   Mostly Cloudy
7:20 PM 37.4 °F 27.8 °F 33.8 °F 87% 29.77 in 6.2 mi North 17.3 mph - N/A   Mostly Cloudy
7:50 PM 37.4 °F 28.2 °F 33.8 °F 87% 29.77 in 6.2 mi North 16.1 mph 27.6 mph N/A   Mostly Cloudy
8:20 PM 42.8 °F 35.1 °F 37.4 °F 81% 29.77 in 6.2 mi North 16.1 mph - N/A   Mostly Cloudy